Terug naar catalogus

SAUDISAT 5B

ActiefAmateurradioSSO
NORAD 43833·PAYLOAD·🇸🇦 Saudi Arabia

Gelanceerd Dec 7, 2018 vanaf Jiuquan Satellite Launch Center

Loading…

Volgende Passages (komende 24 uur)

TLE

VersSource: Space-Track

Epoch: Sep 14, 2026, 14:22 UTC

1 43833U 18102C   26257.59885514  .00004130  00000-0  14893-3 0  9996
2 43833  97.3084 320.6910 0010403 169.6065 190.5392 15.29040765429458

Volg SAUDISAT 5B in realtime met AllMySat

Download on the App Store